Knoxville, IA

11:42 AM CST on December 09, 2016 (GMT -0600)
Knoxville Municipal

Weather History for KOXV - April, 2012

Change the Weather History Date:

Monday, April 2, 2012

  Actual Average Record
Temperature  
Mean Temperature 68 °F -  
Max Temperature 84 °F 55 °F 87 °F (1981)
Min Temperature 53 °F 34 °F 15 °F (1970)
Cooling Degree Days 4    
Growing Degree Days 18 (Base 50)    
Moisture  
Dew Point 55 °F    
Average Humidity 66    
Maximum Humidity 82    
Minimum Humidity 48    
Precipitation  
Precipitation 0.00 in - - ()
Sea Level Pressure  
Sea Level Pressure 29.65 in    
Wind  
Wind Speed 12 mph (SE)    
Max Wind Speed 17 mph    
Max Gust Speed 22 mph    
Visibility 7 miles    
Events      
Averages and records for this station are not official NWS values.
T = Trace of Precipitation, MM = Missing Value Source: NWS Daily Summary

Daily Weather History Graph

Daily Weather History Graph

Search for Another Location

Airport or City:

Trip Planner

Search our weather history database for the weather conditions in past years. The results will help you decide how hot, cold, wet, or windy it might be!

Date:

Astronomy

Apr. 02, 2012 Rise Set
Actual Time 6:53 AM CDT 7:39 PM CDT
Civil Twilight 6:25 AM CDT 8:07 PM CDT
Nautical Twilight 5:52 AM CDT 8:40 PM CDT
Astronomical Twilight 5:17 AM CDT 9:14 PM CDT
Moon 3:13 PM CDT (4/2) 4:09 AM CDT (4/2)
Length of Visible Light 13h 42m
Length of Day
12h 46m
Waxing Gibbous, 78% of the Moon is Illuminated
Apr 2
Waxing Gibbous
Apr 6
Full
Apr 13
Last Quarter
Apr 21
New
Apr 29
First Quarter

Hourly Weather History & Observations

Time (CDT) Temp. Heat Index Dew Point Humidity Pressure Visibility Wind Dir Wind Speed Gust Speed Precip Events Conditions
12:15 AM 62.6 °F - 55.4 °F 77% 29.57 in 7.0 mi East 10.4 mph - N/A   Clear
12:35 AM 62.6 °F - 55.4 °F 77% 29.57 in 5.0 mi East 10.4 mph 17.3 mph N/A   Haze
12:55 AM 62.6 °F - 55.4 °F 77% 29.58 in 5.0 mi East 12.7 mph 19.6 mph N/A   Haze
1:15 AM 62.6 °F - 55.4 °F 77% 29.58 in 5.0 mi East 11.5 mph 17.3 mph N/A   Haze
1:35 AM 60.8 °F - 53.6 °F 77% 29.59 in 5.0 mi East 11.5 mph 19.6 mph N/A   Haze
1:55 AM 60.8 °F - 53.6 °F 77% 29.59 in 5.0 mi ESE 11.5 mph 19.6 mph N/A   Haze
2:15 AM 59.0 °F - 51.8 °F 77% 29.59 in 5.0 mi East 11.5 mph 18.4 mph N/A   Haze
2:35 AM 57.2 °F - 51.8 °F 82% 29.60 in 5.0 mi East 11.5 mph 20.7 mph N/A   Haze
2:55 AM 57.2 °F - 50.0 °F 77% 29.60 in 5.0 mi East 13.8 mph 21.9 mph N/A   Haze
3:15 AM 55.4 °F - 48.2 °F 77% 29.61 in 4.0 mi ESE 11.5 mph 20.7 mph N/A   Haze
3:35 AM 55.4 °F - 48.2 °F 77% 29.61 in 4.0 mi ESE 15.0 mph 20.7 mph N/A   Haze
3:55 AM 55.4 °F - 48.2 °F 77% 29.61 in 4.0 mi ESE 15.0 mph 20.7 mph N/A   Haze
4:15 AM 53.6 °F - 48.2 °F 82% 29.61 in 4.0 mi ESE 13.8 mph 19.6 mph N/A   Haze
4:35 AM 53.6 °F - 48.2 °F 82% 29.61 in 3.0 mi ESE 13.8 mph 17.3 mph N/A   Haze
4:55 AM 53.6 °F - 48.2 °F 82% 29.62 in 3.0 mi ESE 11.5 mph 16.1 mph N/A   Haze
5:15 AM 53.6 °F - 48.2 °F 82% 29.62 in 3.0 mi ESE 12.7 mph 17.3 mph N/A   Haze
5:35 AM 53.6 °F - 48.2 °F 82% 29.63 in 3.0 mi ESE 11.5 mph 17.3 mph N/A   Haze
5:55 AM 53.6 °F - 48.2 °F 82% 29.63 in 3.0 mi ESE 12.7 mph 18.4 mph N/A   Haze
6:15 AM 53.6 °F - 46.4 °F 77% 29.64 in 2.5 mi ESE 11.5 mph 16.1 mph N/A   Haze
6:55 AM 53.6 °F - 46.4 °F 77% 29.65 in 2.0 mi ESE 12.7 mph 17.3 mph N/A   Haze
7:15 AM 53.6 °F - 46.4 °F 77% 29.66 in 1.8 mi ESE 11.5 mph - N/A   Haze
7:35 AM 53.6 °F - 46.4 °F 77% 29.67 in 1.8 mi East 10.4 mph - N/A   Haze
7:55 AM 53.6 °F - 46.4 °F 77% 29.67 in 1.8 mi ESE 12.7 mph - N/A   Haze
8:15 AM 53.6 °F - 48.2 °F 82% 29.68 in 2.0 mi East 12.7 mph - N/A   Haze
8:35 AM 53.6 °F - 48.2 °F 82% 29.68 in 2.5 mi East 11.5 mph - N/A   Haze
8:55 AM 55.4 °F - 48.2 °F 77% 29.68 in 3.0 mi ESE 11.5 mph - N/A   Haze
9:15 AM 57.2 °F - 50.0 °F 77% 29.68 in 4.0 mi ESE 9.2 mph - N/A   Haze
9:35 AM 59.0 °F - 51.8 °F 77% 29.68 in 4.0 mi ESE 11.5 mph - N/A   Haze
9:55 AM 62.6 °F - 53.6 °F 72% 29.69 in 5.0 mi ESE 9.2 mph - N/A   Haze
10:15 AM 64.4 °F - 55.4 °F 73% 29.69 in 5.0 mi ESE 9.2 mph - N/A   Haze
10:35 AM 66.2 °F - 55.4 °F 68% 29.69 in 7.0 mi ESE 10.4 mph 16.1 mph N/A   Clear
10:55 AM 68.0 °F - 57.2 °F 68% 29.68 in 7.0 mi ESE 10.4 mph 17.3 mph N/A   Clear
11:15 AM 69.8 °F - 57.2 °F 64% 29.68 in 10.0 mi ESE 9.2 mph 17.3 mph N/A   Clear
11:35 AM 71.6 °F - 57.2 °F 60% 29.68 in 10.0 mi ESE 13.8 mph - N/A   Clear
11:55 AM 73.4 °F - 60.8 °F 65% 29.68 in 10.0 mi SE 12.7 mph - N/A   Clear
12:15 PM 75.2 °F - 60.8 °F 61% 29.68 in 10.0 mi SE 15.0 mph - N/A   Clear
12:35 PM 75.2 °F - 60.8 °F 61% 29.68 in 10.0 mi SE 11.5 mph 17.3 mph N/A   Clear
12:55 PM 78.8 °F - 62.6 °F 57% 29.68 in 10.0 mi SE 15.0 mph 18.4 mph N/A   Clear
1:15 PM 78.8 °F - 62.6 °F 57% 29.67 in 10.0 mi SE 16.1 mph 19.6 mph N/A   Clear
1:35 PM 80.6 °F 81.8 °F 62.6 °F 54% 29.67 in 10.0 mi SSE 11.5 mph 17.3 mph N/A   Clear
1:55 PM 80.6 °F 81.8 °F 62.6 °F 54% 29.67 in 10.0 mi SE 17.3 mph - N/A   Clear
2:15 PM 80.6 °F 81.8 °F 62.6 °F 54% 29.66 in 10.0 mi SSE 13.8 mph 21.9 mph N/A   Clear
2:35 PM 82.4 °F 83.4 °F 62.6 °F 51% 29.66 in 10.0 mi SE 13.8 mph 19.6 mph N/A   Clear
2:55 PM 82.4 °F 83.4 °F 62.6 °F 51% 29.66 in 10.0 mi SSE 11.5 mph 19.6 mph N/A   Clear
3:15 PM 82.4 °F 82.9 °F 60.8 °F 48% 29.65 in 10.0 mi SSE 13.8 mph 20.7 mph N/A   Clear
3:35 PM 82.4 °F 83.4 °F 62.6 °F 51% 29.65 in 10.0 mi SSE 12.7 mph 21.9 mph N/A   Clear
3:55 PM 82.4 °F 83.4 °F 62.6 °F 51% 29.65 in 10.0 mi SSE 13.8 mph 21.9 mph N/A   Clear
4:15 PM 82.4 °F 82.9 °F 60.8 °F 48% 29.65 in 10.0 mi SSE 12.7 mph 19.6 mph N/A   Clear
4:35 PM 82.4 °F 82.9 °F 60.8 °F 48% 29.65 in 10.0 mi SSE 12.7 mph 19.6 mph N/A   Clear
4:55 PM 84.2 °F 85.0 °F 62.6 °F 48% 29.65 in 10.0 mi South 15.0 mph - N/A   Clear
5:15 PM 82.4 °F 82.9 °F 60.8 °F 48% 29.65 in 10.0 mi South 15.0 mph - N/A   Clear
5:35 PM 82.4 °F 83.4 °F 62.6 °F 51% 29.65 in 10.0 mi South 11.5 mph 17.3 mph N/A   Clear
5:55 PM 82.4 °F 82.9 °F 60.8 °F 48% 29.65 in 10.0 mi South 15.0 mph - N/A   Clear
6:15 PM 80.6 °F 81.5 °F 60.8 °F 51% 29.66 in 10.0 mi South 11.5 mph - N/A   Clear
6:35 PM 80.6 °F 81.5 °F 60.8 °F 51% 29.67 in 10.0 mi South 9.2 mph - N/A   Clear
6:55 PM 78.8 °F - 60.8 °F 54% 29.68 in 10.0 mi South 8.1 mph - N/A   Clear
7:15 PM 78.8 °F - 60.8 °F 54% 29.67 in 10.0 mi SSE 8.1 mph - N/A   Clear
7:35 PM 75.2 °F - 59.0 °F 57% 29.67 in 10.0 mi South 9.2 mph - N/A   Clear
7:55 PM 75.2 °F - 57.2 °F 53% 29.68 in 10.0 mi South 6.9 mph - N/A   Clear
8:15 PM 73.4 °F - 57.2 °F 57% 29.68 in 10.0 mi South 6.9 mph - N/A   Clear
8:35 PM 73.4 °F - 57.2 °F 57% 29.69 in 10.0 mi South 6.9 mph - N/A   Clear
8:55 PM 71.6 °F - 57.2 °F 60% 29.69 in 10.0 mi South 8.1 mph - N/A   Clear
9:15 PM 71.6 °F - 57.2 °F 60% 29.70 in 10.0 mi South 8.1 mph - N/A   Clear
9:35 PM 71.6 °F - 55.4 °F 57% 29.71 in 10.0 mi South 9.2 mph - N/A   Clear
9:55 PM 71.6 °F - 55.4 °F 57% 29.71 in 10.0 mi South 8.1 mph - N/A   Clear
10:15 PM 69.8 °F - 55.4 °F 60% 29.72 in 10.0 mi South 8.1 mph - N/A   Clear
10:35 PM 69.8 °F - 55.4 °F 60% 29.72 in 10.0 mi SSW 5.8 mph - N/A   Clear
10:55 PM 68.0 °F - 53.6 °F 60% 29.73 in 10.0 mi South 5.8 mph - N/A   Clear
11:15 PM 69.8 °F - 53.6 °F 56% 29.74 in 10.0 mi SSW 6.9 mph - N/A   Clear
11:35 PM 68.0 °F - 53.6 °F 60% 29.74 in 10.0 mi SSW 4.6 mph - N/A   Clear
11:55 PM 68.0 °F - 53.6 °F 60% 29.74 in 10.0 mi SW 6.9 mph - N/A   Clear